map of ARK home
ARK - Airport
Location
City:  Arusha, Arusha, Tanzania
Name:Arusha Airport
ICAO:HTAR
IATA:ARK

Details
Type:Airport (Aerodrome, Airfield)
Latitude:322'04"S (-3.367793)
Longitude:3638'00"E (36.633333)
Datum:WGS 1984
Elevation:4550 ft (1387 m)
Variation:0.05W (WMM2015v2 magnetic declination)
0.01 annual change
Runways:1
Longest:5377 × 105 ft (1639 × 32 m), paved

Time
Time Zone:UTC+3
Local Time:

Weather
METAR:HTAR 041300Z 07007KT 9999 BKN034 FEW036CB 30/13 Q1013 NOSIG
TAF:HTAR 041100Z 0412/0512 10004KT 9999 SCT030
BECMG 0412/0415 BKN032 FEW034CB

Related Locations
Nearby:
Farthest:NHV: 11568 mi / 18616 km
Nuku Hiva, Marquesas Islands, PF

Find:

   beyond  
but within

Other Information
Maps:
NOTAMs:
Links:
Sources:

  
  • flag of Tanzania
  

Sectional Chart

Flight Planning
at skyvector.com

Satellite Image

Google Maps Satellite view

 

Copyright © 2004-2019 Karl L. Swartz. All rights reserved.
The Great Circle Mapper name and logo are trademarks of the Great Circle Mapper.
All other trademarks mentioned herein belong to their respective owners.
Please see credits for attibutions and further copyright information.

  Follow gcmap on Facebook Follow gcmap on Twitter GCmap on LinkedIn

hCard Microformat

Geo Microformat